User: anonymous   Login
Location: Gollag?dem
(16.8053°N, 80.8024°E)
Time: 19:19:39
(UTC+00:00)
Language:

ATLAS 3B CENTAUR R/B - Orbit

View from above orbital plane
View from above orbital plane
View from above satellite
View from above satellite

Ground track
Ground track

The orbit data is extracted from the following two-line orbital elements,

1 28118U 03057B   20296.22048118  .00086331 -22685-5  84791-3 0  9992
2 28118  28.1143   7.4184 2309998 236.9219  98.8251 10.92316245413753
Epoch (UTC): 22 October 2020 05:17:29
Eccentricity: 0.2309998
inclination: 28.1143°
perigee height: 220 km
apogee height: 4184 km
right ascension of ascending node: 7.4184°
argument of perigee: 236.9219°
revolutions per day: 10.92316245
mean anomaly at epoch: 98.8251°
orbit number at epoch: 41375

The dashed part of the orbit path shows where the satellite is in the earth's shadow,  

DLR